Change the Weather History Date:

Tuesday, October 9, 2012

  Actual Average Record
Temperature  
Mean Temperature 64 °F -  
Max Temperature 77 °F 82 °F 96 °F (1991)
Min Temperature 50 °F 54 °F 41 °F (1931)
Degree Days  
Heating Degree Days 1 1  
Month to date heating degree days 1 6  
Since 1 July heating degree days 1 9  
Cooling Degree Days 0 4  
Month to date cooling degree days 58 45  
Year to date cooling degree days 1673 1657  
Growing Degree Days 13 (Base 50)    
Moisture  
Dew Point 47 °F    
Average Humidity 61    
Maximum Humidity 89    
Minimum Humidity 33    
Precipitation  
Precipitation 0.00 in 0.02 in 0.21 in (1947)
Month to date precipitation T 0.13  
Year to date precipitation 6.85 9.16  
Since 1 July precipitation T 0.41  
Snow  
Snow 0.00 in - 0.00 in (2002)
Month to date snowfall 0.0  
Since 1 July snowfall 0.0  
Since 1 September snowfall 0.0  
Snow Depth -    
Sea Level Pressure  
Sea Level Pressure 29.97 in    
Wind  
Wind Speed 4 mph (NW)    
Max Wind Speed 18 mph    
Max Gust Speed 82 mph    
Visibility 10 miles    
Events      
T = Trace of Precipitation, MM = Missing Value Source: NWS Daily Summary

Daily Weather History Graph

Daily Weather History Graph

Search for Another Location

Airport or City:

Trip Planner

Search our weather history database for the weather conditions in past years. The results will help you decide how hot, cold, wet, or windy it might be!

Date:

Astronomy

Oct. 09, 2012 Rise Set
Actual Time 7:07 AM PDT 6:34 PM PDT
Civil Twilight 6:40 AM PDT 7:00 PM PDT
Nautical Twilight 6:10 AM PDT 7:30 PM PDT
Astronomical Twilight 5:40 AM PDT 8:00 PM PDT
Moon 12:55 AM PDT (10/9) 2:58 PM PDT (10/9)
Length of Visible Light 12h 19m
Length of Day
11h 27m
Waning Crescent, 35% of the Moon is Illuminated
Oct 9
Waning Crescent
Oct 15
New
Oct 21
First Quarter
Oct 29
Full
Nov 6
Last Quarter

Hourly Weather History & Observations

Time (PDT) Temp. Dew Point Humidity Pressure Visibility Wind Dir Wind Speed Gust Speed Precip Events Conditions
1:53 AM 55.9 °F 48.9 °F 77% 30.01 in 10.0 mi North 3.5 mph - N/A   Clear
2:53 AM 55.0 °F 48.9 °F 80% 30.02 in 10.0 mi Calm Calm - N/A   Clear
3:53 AM 55.0 °F 50.0 °F 83% 30.01 in 10.0 mi North 3.5 mph - N/A   Clear
4:53 AM 54.0 °F 48.9 °F 83% 30.01 in 10.0 mi Calm Calm - N/A   Clear
5:53 AM 53.1 °F 48.9 °F 86% 30.00 in 10.0 mi NW 4.6 mph 81.7 mph N/A   Clear
6:53 AM 51.1 °F 48.0 °F 89% 30.01 in 9.0 mi Calm Calm - N/A   Clear
7:53 AM 53.1 °F 48.9 °F 86% 30.02 in 8.0 mi Calm Calm - N/A   Clear
8:53 AM 60.1 °F 50.0 °F 69% 30.02 in 10.0 mi NNW 6.9 mph - N/A   Clear
9:53 AM 64.0 °F 48.9 °F 58% 30.02 in 10.0 mi North 5.8 mph - N/A   Clear
10:53 AM 66.0 °F 48.0 °F 52% 30.01 in 10.0 mi West 5.8 mph - N/A   Clear
11:53 AM 69.1 °F 48.0 °F 47% 29.99 in 10.0 mi Variable 4.6 mph - N/A   Clear
12:53 PM 72.0 °F 45.0 °F 38% 29.97 in 10.0 mi NNW 5.8 mph - N/A   Clear
1:53 PM 75.0 °F 45.0 °F 34% 29.94 in 10.0 mi WNW 6.9 mph - N/A   Clear
2:53 PM 73.9 °F 44.1 °F 34% 29.93 in 10.0 mi Variable 4.6 mph - N/A   Clear
3:53 PM 75.9 °F 44.1 °F 32% 29.91 in 10.0 mi Calm Calm - N/A   Clear
4:53 PM 75.9 °F 44.1 °F 32% 29.91 in 10.0 mi NW 8.1 mph - N/A   Clear
5:53 PM 73.9 °F 44.1 °F 34% 29.90 in 10.0 mi North 8.1 mph - N/A   Clear
6:53 PM 69.1 °F 44.1 °F 40% 29.91 in 10.0 mi NW 5.8 mph - N/A   Clear
7:53 PM 66.9 °F 46.0 °F 47% 29.92 in 10.0 mi WNW 5.8 mph - N/A   Clear
8:53 PM 64.9 °F 48.0 °F 54% 29.93 in 10.0 mi WNW 9.2 mph - N/A   Clear
9:53 PM 64.0 °F 48.9 °F 58% 29.92 in 10.0 mi NW 10.4 mph - N/A   Clear
10:53 PM 62.1 °F 48.9 °F 62% 29.93 in 10.0 mi NW 6.9 mph - N/A   Clear
11:53 PM 60.1 °F 50.0 °F 69% 29.93 in 10.0 mi North 5.8 mph - N/A   Clear